TimeEDT,TemperatureF,Dew PointF,Humidity,Sea Level PressureIn,VisibilityMPH,Wind Direction,Wind SpeedMPH,Gust SpeedMPH,PrecipitationIn,Events,Conditions,WindDirDegrees,DateUTC
12:54 AM,51.1,43.0,74,30.14,10.0,Calm,Calm,-,N/A,,Clear,0,2013-09-09 04:54:00
1:54 AM,48.0,43.0,83,30.14,10.0,Calm,Calm,-,N/A,,Clear,0,2013-09-09 05:54:00
2:54 AM,46.9,42.1,83,30.16,10.0,Calm,Calm,-,N/A,,Clear,0,2013-09-09 06:54:00
3:54 AM,46.0,42.1,86,30.16,10.0,Calm,Calm,-,N/A,,Clear,0,2013-09-09 07:54:00
4:54 AM,45.0,41.0,86,30.19,10.0,Calm,Calm,-,N/A,,Clear,0,2013-09-09 08:54:00
5:54 AM,44.1,41.0,89,30.20,10.0,Calm,Calm,-,N/A,,Clear,0,2013-09-09 09:54:00
6:54 AM,43.0,39.9,89,30.21,10.0,Calm,Calm,-,N/A,,Clear,0,2013-09-09 10:54:00
7:54 AM,46.9,41.0,80,30.23,10.0,Calm,Calm,-,N/A,,Clear,0,2013-09-09 11:54:00
8:54 AM,51.1,42.1,71,30.23,10.0,Calm,Calm,-,N/A,,Clear,0,2013-09-09 12:54:00
9:54 AM,55.0,45.0,69,30.23,10.0,Calm,Calm,-,N/A,,Clear,0,2013-09-09 13:54:00
11:54 AM,-9999,-9999,N/A,30.20,-9999.0,North,-9999.0,-,N/A,,Unknown,0,2013-09-09 15:54:00
12:54 PM,66.9,46.9,49,30.17,10.0,Variable,6.9,-,0.65,,Mostly Cloudy,0,2013-09-09 16:54:00
1:10 PM,68.0,46.4,46,30.17,10.0,SSE,3.5,16.1,N/A,,Partly Cloudy,150,2013-09-09 17:10:00
1:54 PM,69.1,46.9,45,30.16,10.0,SSE,8.1,19.6,N/A,,Clear,150,2013-09-09 17:54:00
2:54 PM,73.0,50.0,44,30.15,10.0,ESE,8.1,-,N/A,,Clear,110,2013-09-09 18:54:00
3:54 PM,73.9,50.0,43,30.12,10.0,SE,12.7,18.4,N/A,,Partly Cloudy,140,2013-09-09 19:54:00
4:54 PM,71.1,51.1,49,30.12,10.0,SSE,9.2,16.1,N/A,,Scattered Clouds,160,2013-09-09 20:54:00
5:54 PM,71.1,53.1,53,30.11,10.0,ESE,6.9,-,N/A,,Overcast,120,2013-09-09 21:54:00
6:54 PM,70.0,52.0,53,30.11,10.0,SSE,12.7,17.3,N/A,,Overcast,150,2013-09-09 22:54:00
7:54 PM,69.1,54.0,58,30.11,10.0,South,8.1,18.4,0.00,Rain,Light Rain,170,2013-09-09 23:54:00
8:54 PM,66.9,55.9,68,30.13,9.0,Calm,Calm,-,0.01,Rain,Light Rain,0,2013-09-10 00:54:00
9:54 PM,64.0,60.1,87,30.12,8.0,NE,3.5,-,0.01,Rain,Rain,50,2013-09-10 01:54:00
10:54 PM,63.0,60.1,90,30.12,10.0,Calm,Calm,-,0.03,Rain,Light Rain,0,2013-09-10 02:54:00
11:22 PM,62.6,60.8,94,30.13,10.0,WNW,4.6,-,0.00,,Overcast,290,2013-09-10 03:22:00
11:54 PM,63.0,60.1,90,30.13,10.0,Calm,Calm,-,0.05,Rain,Light Rain,0,2013-09-10 03:54:00